Flag for Brazil

Past Weather in Maceió, Alagoas, Brazil — Yesterday and Last 2 Weeks

Now
84 °F

Partly sunny.


Feels Like: 87 °F
Forecast: 81 / 75 °F
Wind: 12 mph from Southeast

Location: Maceio Aeroporto
Current Time: Sep 23, 2020 at 2:25:58 pm
Latest Report: Sep 23, 2020 at 2:00 pm
Visibility: N/A
Pressure30.04 "Hg
Humidity: 58%
Dew Point: 68 °F
Location of MaceióLocation

Past Weather in Maceió — Graph

°F

Maceió Temperature Yesterday

Maximum temperature yesterday: 84 °F (at 10:00 am)
Minimum temperature yesterday: 72 °F (at 3:00 am)
Average temperature yesterday: 77 °F

High & Low Weather Summary for the Past Weeks

 TemperatureHumidityPressure
High84 °F (Sep 19, 12:00 pm)100% (Sep 8, 11:00 pm)30.12 "Hg (Sep 8, 11:00 pm)
Low64 °F (Sep 12, 3:00 am)55% (Sep 14, 3:00 pm)29.92 "Hg (Sep 19, 3:00 pm)
Average75 °F83%30.03 "Hg
* Reported Sep 8 1:00 pm — Sep 23 1:00 pm, Maceió. Weather by CustomWeather, © 2020

Note: Actual official high and low records may vary slightly from our data, if they occured in-between our weather recording intervals... More about our weather records

Maceió Weather History for the Previous 24 Hours

Scroll right to see more
 ConditionsComfort  
Time TempWeatherWind HumidityBarometerVisibility
1:00 pm
Wed, Sep 23
84 °FPartly sunny.13 mph58%30.07 "HgN/A
12:00 pm81 °FPartly sunny.14 mph66%30.07 "HgN/A
11:00 am82 °FPartly sunny.7 mph58%30.09 "HgN/A
10:00 am82 °FPartly sunny.13 mph58%30.09 "HgN/A
9:00 am81 °FPartly sunny.8 mph70%30.09 "HgN/A
8:00 am77 °FScattered clouds.7 mph83%30.09 "HgN/A
7:00 am73 °FScattered clouds.No wind94%30.09 "HgN/A
6:00 am70 °FScattered clouds.2 mph94%30.07 "HgN/A
5:00 am68 °FPassing clouds.2 mph100%30.04 "HgN/A
4:00 am70 °FPassing clouds.No wind94%30.04 "HgN/A
3:00 am70 °FPassing clouds.2 mph94%30.04 "HgN/A
2:00 am68 °FClear.2 mph100%30.04 "Hg10 mi
1:00 am70 °FClear.3 mph94%30.04 "Hg10 mi
12:00 am70 °FPassing clouds.3 mph94%30.07 "HgN/A
11:00 pm
Tue, Sep 22
72 °FPassing clouds.1 mph94%30.07 "HgN/A
10:00 pm72 °FPassing clouds.5 mph94%30.07 "HgN/A
9:00 pm72 °FPassing clouds.5 mph94%30.07 "HgN/A
8:00 pm73 °FPassing clouds.5 mph89%30.07 "HgN/A
7:00 pm73 °FClear.6 mph89%30.04 "Hg10 mi
6:00 pm73 °FClear.7 mph89%30.04 "Hg10 mi
5:00 pm79 °FSunny.13 mph74%30.01 "Hg10 mi
4:00 pm81 °FPassing clouds.16 mph70%30.01 "HgN/A
3:00 pm82 °FPassing clouds.18 mph66%30.01 "HgN/A
2:00 pm84 °FScattered clouds.16 mph66%30.01 "HgN/A
Weather by CustomWeather, © 2020

See weather overview